Regional Weather Roundup
Issued by NWS Sterling, VA

Home | Current Version | Previous Version | Graphics & Text | Print | Product List | Glossary On
Versions: 1 2 3 4 5 6 7 8 9 10 11 12 13 14 15 16 17 18 19 20 21 22 23 24 25 26 27
000
ASUS41 KLWX 162011
RWRLWX

REGIONAL WEATHER ROUNDUP
NATIONAL WEATHER SERVICE BALTIMORE MD/WASHINGTON DC
400 PM EDT MON OCT 16 2017

Note: "FAIR" indicates few or no clouds below 12,000 feet
with no significant weather and/or obstructions to visibility.
 TC=TEMPERATURE CELSIUS

 * =Non NWS site. Station does not report precipitation (e.g. rain,
    snow, etc.), thunder, or fog.

DCZ001-MDZ009-015-VAZ040>042-051-053>054-162100-
WASHINGTON METRO

CITY           SKY/WX    TMP DP  RH WIND       PRES   REMARKS
WASHINGTON NAT CLOUDY    65  38  36 NW20      30.11R
DULLES         MOSUNNY   64  35  34 N20G32    30.11R
ANDREWS AFB    PTSUNNY   63  37  39 NW15      30.09R
FT BELVOIR     MOSUNNY   65  36  35 NW12G25   30.11S
QUANTICO       CLOUDY    66  40  38 N13       30.12S
COLLEGE PARK*  MOSUNNY   63  38  39 N10G17    30.10S
LEESBURG*      SUNNY     64  39  39 N17G23    30.13R
MANASSAS*      SUNNY     66  38  35 N16G23    30.12R
GAITHERSBURG*  SUNNY     62  37  39 VRB6G23   30.12R

$$

MDZ006>007-011-014-162100-
BALTIMORE METRO

CITY           SKY/WX    TMP DP  RH WIND       PRES   REMARKS
BWI AIRPORT    PTSUNNY   64  39  39 NW12G18   30.09R
MD SCIENCE CTR   N/A     64  38  38 MISG      30.10R
MARTIN STATE   PTSUNNY   63  45  51 NW12      30.11R
ANNAPOLIS      CLOUDY    63  44  50 NW15      30.10R
FORT MEADE*    MOSUNNY   61  41  48 NW9       30.12S

$$

MDZ012-015-019>023-162100-
MARYLAND EASTERN SHORE

CITY           SKY/WX    TMP DP  RH WIND       PRES   REMARKS
OCEAN CITY     CLOUDY    58  51  78 N13       30.06R
SALISBURY      CLOUDY    59  49  69 N12G22    30.06R
CAMBRIDGE*     PTSUNNY   61  45  55 N17G26    30.09R
EASTON*        MOSUNNY   61  45  55 N9        30.13R

$$

MDZ017>025-162100-
SOUTHERN MARYLAND

CITY           SKY/WX    TMP DP  RH WIND       PRES   REMARKS
PATUXENT RIVER CLOUDY    64  44  48 N14       30.09R
ST INIGOES     CLOUDY    62  45  53 NW7       30.09R
LEONARDTOWN*   NOT AVBL

$$

MDZ003>005-162100-
NORTH CENTRAL MARYLAND

CITY           SKY/WX    TMP DP  RH WIND       PRES   REMARKS
FREDERICK*     MOSUNNY   66  28  24 N13G20    30.14R
HAGERSTOWN APT MOSUNNY   63  35  35 NW20G26   30.13R
WESTMINSTER*   MOSUNNY   63  37  39 N10G17    30.10S

$$

MDZ501>502-162100-
WESTERN MARYLAND

CITY           SKY/WX    TMP DP  RH WIND       PRES   REMARKS
OAKLAND*       PTSUNNY   43  36  75 NW9G16    30.16R
CUMBERLAND*    MOSUNNY   61  32  33 N15G21    30.21S

$$

VAZ025>031-162100-
SHENANDOAH VALLEY

CITY           SKY/WX    TMP DP  RH WIND       PRES   REMARKS
WINCHESTER*    SUNNY     61  34  36 NW18G24   30.14R
FRONT ROYAL*   SUNNY     61  36  39 NW9G18    30.13S
LURAY*         MOSUNNY   63  37  39 N13       30.14S
NEW MARKET*    MOSUNNY   60  36  41 N7        30.15R
STAUNTON*      SUNNY     61  38  43 NW14      30.17R
WAYNESBORO*    CLOUDY    60  39  46 N12G21    30.15R

$$

WVZ021-048>050-054>055-162100-
EASTERN WEST VIRGINIA PANHANDLE

CITY           SKY/WX    TMP DP  RH WIND       PRES   REMARKS
MARTINSBURG    SUNNY     63  32  31 N15G24    30.13R
PETERSBURG*    MOSUNNY   57  37  48 NW9G18    30.18F

$$

VAZ036>039-050-162100-
CENTRAL FOOTHILLS

CITY           SKY/WX    TMP DP  RH WIND       PRES   REMARKS
CHARLOTTESVILL MOSUNNY   63  41  44 N8        30.14R
CULPEPER*      PTSUNNY   66  36  33 N10G18    30.13S
ORANGE*        MOSUNNY   63  37  39 NW15G21   30.13R
GORDONSVILLE*  MOSUNNY   63  40  42 N6        30.13R
WARRENTON*     MOSUNNY   66  32  27 NW13G22   30.12R

$$

VAZ055>057-162100-
NORTH AND CENTRAL PIEDMONT

CITY           SKY/WX    TMP DP  RH WIND       PRES   REMARKS
FREDERICKSBRG* CLOUDY    64  43  45 NW12G18   30.11S
STAFFORD*      MOSUNNY   64  39  41 NW12G22   30.15S

$$

NCZ024-NYZ072-PAZ021-071-VAZ022-071-162100-
OTHER REGIONAL OBSERVATIONS

CITY           SKY/WX    TMP DP  RH WIND       PRES   REMARKS
NEW YORK CITY  CLOUDY    56  39  53 NW13G20   30.07R
PHILADELPHIA   PTSUNNY   58  39  49 NW14      30.08R
PITTSBURGH     MOSUNNY   57  36  45 NW15      30.21S
ROANOKE        PTSUNNY   63  39  41 NW12G24   30.18R
RICHMOND       CLOUDY    64  44  48 N12       30.10R
RALEIGH        CLOUDY    62  55  77 N7        30.10R

$$

ANZ530>537-162100-
MARINE OBSERVATIONS

STATION/POSITION TIME  TEMP    WIND        PRES
                       AIR SEA DIR/SP/G
                 (UTC) (F)     (DEG/KT/KT) (MB)
THOMAS PT LIGHT  2000   61 70  350/ 18/ 21   N/A
BALT KEY BRIDGE  1936   61     340/ 13/ 17 1019.1R
COVE POINT       1936   60     360/ 16/ 24 1019.5R
LEWISETTA        1936   62 69  350/ 13/ 22 1018.7R
SOLOMONS ISLAND  1936   60 71  340/ 14/ 17 1018.6R
PINEY POINT      1936          350/ 16/ 18   N/A

$$





USA.gov is the U.S. government's official web portal to all federal, state and local government web resources and services.